Location: Newark
(51.3318°N, 0.0053°E)
Time: 04:54:03
(UTC+00:00)

Envisat - Pass Details

Date: 22 January 2022
Orbit: 764 x 765 km, 98.2° (Epoch: 25 May)

Event Time Altitude Azimuth Distance (km) Brightness Sun altitude
Rises 06:43:25 0° 5° (N) 3,245 6.1 -10.4°
Reaches altitude 10° 06:46:19 10° 348° (NNW) 2,314 5.2 -10.0°
Maximum altitude 06:49:49 19° 304° (NW) 1,767 4.3 -9.5°
Drops below altitude 10° 06:53:17 10° 261° (W) 2,305 5.0 -9.0°
Sets 06:56:11 0° 244° (WSW) 3,227 5.8 -8.6°
